PIESAT-2 10

导读 | 星芒AI

PIESAT-2 10 是一颗由中国研制的遥感卫星,主要用于对地观测和环境监测。该卫星具备高分辨率成像能力,可广泛应用于资源调查、灾害预警、城市规划等领域。作为 PIESAT 系列的一部分,PIESAT-2 10 在数据获取精度和传输效率方面均有提升,增强了我国在民用遥感领域的技术实力。卫星已成功发射并投入运行,为相关科学研究和实际应用提供了重要支持。

基本信息
目录编号:
62334
目录名称:
PIESAT-2 10
国际标识:
2024-241B
轨道中心:
EARTH
卫星名称:
PIESAT-2 10
卫星全名:
PIESAT-2 10
卫星状态:
在轨 (已飞行317 天)
发射日期:
2024-12-16 UTC
国别 :
中国 (CN)
星等 :
--
轨道信息
数据来源 国际轨道数据
星历时间: 2025-10-28T21:57:21+0800
1天前
查看轨道信息
半长轴: 6902.661km
偏心率: 0.0001791
轨道倾角: 97.527°
近地点辐角 54.781°
升交点赤经 247.313°
平近点角 305.359°
近地点: 523.289km
远地点: 525.763km
周期: 95.123分钟
每日圈数: 15.138332
详细信息
使用方式:
暂无
2D轨道图
3D轨道图
轨道高度分析图
轨道倾角分析图
轨道综合分析图
查看轨道综合分析图